Location: Melara
(45.0500°N, 11.1833°E)
Time: 21:35:16
(UTC+00:00)

Lacrosse 5 rocket - Pass Details

Date: 26 May 2022
Orbit: 456 x 629 km, 57.0° (Epoch: 04 July)

Event Time Altitude Azimuth Distance (km) Brightness Sun altitude
Exits shadow 02:58:13 - 266° (W) 2,268 4.0 -6.3°
Reaches altitude 10° 02:59:41 10° 274° (W) 1,746 3.5 -6.1°
Maximum altitude 03:03:07 28° 335° (NNW) 1,031 2.9 -5.6°
Drops below altitude 10° 03:06:45 10° 36° (NE) 1,848 5.5 -5.1°
Sets 03:09:19 0° 48° (NE) 2,781 7.6 -4.7°
